User: anonymous   Login
Location: Adrasan
(36.3319°N, 30.4314°E)
Time: 12:45:04
(UTC+00:00)
Language:

EO 1 Delta rocket - Orbit

View from above orbital plane
View from above orbital plane
View from above satellite
View from above satellite

Ground track
Ground track

The orbit data is extracted from the following two-line orbital elements,

1 26622U 00075D   24114.89724387  .00000797  00000-0  71041-3 0  9999
2 26622  95.4273  72.0207 0717956 107.1332 319.2936 13.04706514114965
Epoch (UTC): 23 April 2024 21:32:01
Eccentricity: 0.0717956
inclination: 95.4273°
perigee height: 696 km
apogee height: 1791 km
right ascension of ascending node: 72.0207°
argument of perigee: 107.1332°
revolutions per day: 13.04706514
mean anomaly at epoch: 319.2936°
orbit number at epoch: 11496

The dashed part of the orbit path shows where the satellite is in the earth's shadow,  

DLR